INTELSAT 904 (IS-904)

Last updated on Thu Oct 30 2025 00:02:47 GMT+0000 (Coordinated Universal Time)

1 27380U 02007A 25302.25077997 -.00000211 00000+0 00000+0 0 9990 2 27380 6.3388 71.9444 0001600 110.6245 274.1093 1.00271654 49459
UTC large
Height (km)
Speed (km/s)
/
Latitude / Longitude
Inclination (degrees)
Orbital Period (minutes)
Azimuth
Elevation
Range (km)
Doppler Factor

Next 0 passes for location: London (51.5072 / 0.1276)

Sorry there are no passes over London.